Location: Smyrna_Hopewell
(35.6500°N, 81.0330°W)
Time: 02:13:06
(UTC-04:00)

Cosmos 2221 - Visible Passes

Search period start: 22 September 2014 00:00
Search period end: 02 October 2014 00:00
Orbit: 597 x 623 km, 82.5° (Epoch: 21 September)

Date Brightness Start Highest point End Pass type
(mag) Time Alt. Az. Time Alt. Az. Time Alt. Az.
22 Sep 4.8 21:05:10 10° SW 21:08:43 25° WNW 21:12:17 10° NNW visible
23 Sep 3.0 19:41:43 10° SSE 19:45:40 38° E 19:49:38 10° NNE visible
23 Sep 5.7 21:21:11 10° WSW 21:23:29 14° WNW 21:25:48 10° NW visible
24 Sep 2.4 19:55:55 10° S 20:00:11 73° E 20:04:27 10° N visible
25 Sep 5.9 06:08:06 10° NE 06:10:15 13° ENE 06:12:24 10° ESE visible
25 Sep 3.2 20:10:33 10° SSW 20:14:45 59° W 20:18:59 10° N visible
26 Sep 5.2 06:21:31 10° NNE 06:25:01 24° ENE 06:28:32 10° SE visible
26 Sep 4.5 20:25:36 10° SW 20:29:25 31° WNW 20:33:14 10° NNW visible
27 Sep 4.0 06:35:35 10° N 06:39:43 43° E 06:43:51 10° SSE visible
27 Sep 5.5 20:41:14 10° WSW 20:44:08 18° WNW 20:47:03 10° NNW visible
28 Sep 2.7 06:49:59 10° N 06:54:20 82° E 06:58:41 10° S visible
29 Sep 6.1 05:29:55 10° ENE 05:30:53 11° ENE 05:31:52 10° E visible
29 Sep 2.8 19:31:12 10° S 19:35:28 76° W 19:39:45 10° N visible
30 Sep 5.4 05:42:33 10° NNE 05:45:41 19° ENE 05:48:49 10° ESE visible
30 Sep 4.1 19:46:05 10° SSW 19:50:05 39° W 19:54:07 10° N visible
01 Oct 4.4 05:56:26 10° NNE 06:00:24 34° ENE 06:04:22 10° SE visible
01 Oct 5.3 20:01:27 10° SW 20:04:47 22° WNW 20:08:07 10° NNW visible
